Satellite: MET-3/5
Catalog number: 21655
Epoch time: 07073.97014879
Element set: 0263
Inclination: 082.5467 deg
RA of node: 069.5026 deg
Eccentricity: 0.0014604
Arg of perigee: 082.8843 deg
Mean anomaly: 277.3939 deg
Mean motion: 13.17010112 rev/day
Decay rate: 5.1e-07 rev/day^2
Epoch rev: 74900
Checksum: 302
Satellite: MET-2/21
Catalog number: 22782
Epoch time: 07073.63635714
Element set: 0773
Inclination: 082.5462 deg
RA of node: 116.9346 deg
Eccentricity: 0.0023568
Arg of perigee: 138.5623 deg
Mean anomaly: 221.7333 deg
Mean motion: 13.83615375 rev/day
Decay rate: -5.2e-07 rev/day^2
Epoch rev: 68344
Checksum: 311
Satellite: OKEAN-4
Catalog number: 23317
Epoch time: 07073.95649852
Element set: 0211
Inclination: 082.5403 deg
RA of node: 024.4382 deg
Eccentricity: 0.0021289
Arg of perigee: 199.5648 deg
Mean anomaly: 160.4762 deg
Mean motion: 14.82476899 rev/day
Decay rate: 1.09e-06 rev/day^2
Epoch rev: 67009
Checksum: 324
Satellite: NOAA-14
Catalog number: 23455
Epoch time: 07073.87799475
Element set: 0563
Inclination: 098.9990 deg
RA of node: 139.5224 deg
Eccentricity: 0.0009255
Arg of perigee: 011.4966 deg
Mean anomaly: 348.6432 deg
Mean motion: 14.13705177 rev/day
Decay rate: 1.79e-06 rev/day^2
Epoch rev: 62931
Checksum: 343
Satellite: SICH-1
Catalog number: 23657
Epoch time: 07073.93250042
Element set: 0014
Inclination: 082.5304 deg
RA of node: 165.3918 deg
Eccentricity: 0.0023773
Arg of perigee: 189.2165 deg
Mean anomaly: 170.8618 deg
Mean motion: 14.81460046 rev/day
Decay rate: 3.1e-07 rev/day^2
Epoch rev: 62207
Checksum: 277
Satellite: NOAA-15
Catalog number: 25338
Epoch time: 07073.56759721
Element set: 0922
Inclination: 098.5305 deg
RA of node: 072.9269 deg
Eccentricity: 0.0009908
Arg of perigee: 308.5417 deg
Mean anomaly: 051.4862 deg
Mean motion: 14.24629821 rev/day
Decay rate: -8.0e-07 rev/day^2
Epoch rev: 45921
Checksum: 324
Satellite: RESURS
Catalog number: 25394
Epoch time: 07073.78148250
Element set: 594
Inclination: 098.4556 deg
RA of node: 132.0007 deg
Eccentricity: 0.0002312
Arg of perigee: 091.6791 deg
Mean anomaly: 268.4652 deg
Mean motion: 14.24129815 rev/day
Decay rate: -2.0e-08 rev/day^2
Epoch rev: 45091
Checksum: 287
Satellite: FENGYUN1
Catalog number: 25730
Epoch time: 07074.72589046
Element set: 11
Inclination: 098.6853 deg
RA of node: 062.1547 deg
Eccentricity: 0.0022927
Arg of perigee: 031.2184 deg
Mean anomaly: 329.0335 deg
Mean motion: 14.07442392 rev/day
Decay rate: 4.40e-06 rev/day^2
Epoch rev: 40431
Checksum: 274
Satellite: OKEAN-0
Catalog number: 25860
Epoch time: 07073.56638906
Element set: 1
Inclination: 097.7324 deg
RA of node: 080.2363 deg
Eccentricity: 0.0001094
Arg of perigee: 040.9725 deg
Mean anomaly: 319.1558 deg
Mean motion: 14.73436496 rev/day
Decay rate: 7.4e-07 rev/day^2
Epoch rev: 41156
Checksum: 295
Satellite: NOAA-16
Catalog number: 26536
Epoch time: 07073.61905105
Element set: 0334
Inclination: 099.1071 deg
RA of node: 048.9584 deg
Eccentricity: 0.0011237
Arg of perigee: 080.3932 deg
Mean anomaly: 279.8507 deg
Mean motion: 14.12412941 rev/day
Decay rate: 3.77e-06 rev/day^2
Epoch rev: 33375
Checksum: 302
Satellite: NOAA-17
Catalog number: 27453
Epoch time: 07073.86394416
Element set: 0345
Inclination: 098.5882 deg
RA of node: 145.3977 deg
Eccentricity: 0.0011557
Arg of perigee: 013.1525 deg
Mean anomaly: 346.9938 deg
Mean motion: 14.23861485 rev/day
Decay rate: 1.49e-06 rev/day^2
Epoch rev: 24529
Checksum: 341
Satellite: NOAA-18
Catalog number: 28654
Epoch time: 07073.87439840
Element set: 0883
Inclination: 098.8197 deg
RA of node: 016.7803 deg
Eccentricity: 0.0014323
Arg of perigee: 172.4658 deg
Mean anomaly: 187.6694 deg
Mean motion: 14.11045594 rev/day
Decay rate: 5.1e-07 rev/day^2
Epoch rev: 09355
Checksum: 340
/EX
SB KEPS @ AMSAT $ORB07074.M
Orbital Elements 07074.MISC
HR AMSAT ORBITAL ELEMENTS FOR MANNED AND MISCELLANEOUS SATELLITES
FROM WA5QGD FORT WORTH,TX March 15, 2007
Send SUBSCRIBE KEPS/UNSUBSCRIBE KEPS to majordomo at amsat.org only
BID: ORB07074.M
TO ALL RADIO AMATEURS BT
Satellite: HUBBLE
Catalog number: 20580
Epoch time: 07073.80772393
Element set: 0846
Inclination: 028.4663 deg
RA of node: 085.5329 deg
Eccentricity: 0.0003845
Arg of perigee: 172.7418 deg
Mean anomaly: 187.3222 deg
Mean motion: 15.00205375 rev/day
Decay rate: 4.29e-06 rev/day^2
Epoch rev: 72577
Checksum: 305
Satellite: UARS
Catalog number: 21701
Epoch time: 07073.98058990
Element set: 0030
Inclination: 056.9764 deg
RA of node: 002.4718 deg
Eccentricity: 0.0095718
Arg of perigee: 014.1770 deg
Mean anomaly: 346.1938 deg
Mean motion: 15.47110634 rev/day
Decay rate: 8.501e-05 rev/day^2
Epoch rev: 85116
Checksum: 297
Satellite: PO-34
Catalog number: 25520
Epoch time: 07073.96525682
Element set: 0695
Inclination: 028.4606 deg
RA of node: 019.3423 deg
Eccentricity: 0.0005278
Arg of perigee: 306.4287 deg
Mean anomaly: 053.5813 deg
Mean motion: 15.16946175 rev/day
Decay rate: 6.13e-06 rev/day^2
Epoch rev: 46320
Checksum: 306
Satellite: ISS
Catalog number: 25544
Epoch time: 07074.98183145
Element set: 828
Inclination: 051.6340 deg
RA of node: 225.5444 deg
Eccentricity: 0.0020911
Arg of perigee: 323.2192 deg
Mean anomaly: 134.7978 deg
Mean motion: 15.79387477 rev/day
Decay rate: 2.1533e-04 rev/day^2
Epoch rev: 47605
Checksum: 315
Satellite: OO-38
Catalog number: 26063
Epoch time: 07073.53691932
Element set: 0863
Inclination: 100.2234 deg
RA of node: 058.6892 deg
Eccentricity: 0.0037261
Arg of perigee: 066.1761 deg
Mean anomaly: 294.3322 deg
Mean motion: 14.35798531 rev/day
Decay rate: -6.0e-08 rev/day^2
Epoch rev: 37347
Checksum: 310
Satellite: NO-45
Catalog number: 26932
Epoch time: 07073.98361396
Element set: 0549
Inclination: 067.0514 deg
RA of node: 029.9025 deg
Eccentricity: 0.0005213
Arg of perigee: 290.6964 deg
Mean anomaly: 069.3575 deg
Mean motion: 14.29550915 rev/day
Decay rate: -7.5e-07 rev/day^2
Epoch rev: 28467
Checksum: 335
Satellite: UWE-1
Catalog number: 28892
Epoch time: 07074.63057011
Element set: 700
Inclination: 098.1406 deg
RA of node: 333.0845 deg
Eccentricity: 0.0018326
Arg of perigee: 046.0076 deg
Mean anomaly: 314.2659 deg
Mean motion: 14.59475485 rev/day
Decay rate: 1.87e-06 rev/day^2
Epoch rev: 7356
Checksum: 304
Satellite: CO-58
Catalog number: 28895
Epoch time: 07073.30978624
Element set: 0679
Inclination: 098.1419 deg
RA of node: 331.9649 deg
Eccentricity: 0.0018874
Arg of perigee: 050.5903 deg
Mean anomaly: 309.6945 deg
Mean motion: 14.59524042 rev/day
Decay rate: 6.9e-07 rev/day^2
Epoch rev: 07325
Checksum: 355
Satellite: NCUBE2
Catalog number: 28897
Epoch time: 07073.66927008
Element set: 0204
Inclination: 098.1418 deg
RA of node: 332.2833 deg
Eccentricity: 0.0018335
Arg of perigee: 050.0646 deg
Mean anomaly: 310.2158 deg
Mean motion: 14.59684808 rev/day
Decay rate: 1.58e-06 rev/day^2
Epoch rev: 06558
Checksum: 313
Satellite: NMARS
Catalog number: 29662
Epoch time: 07074.62074426
Element set: 124
Inclination: 051.6364 deg
RA of node: 221.0063 deg
Eccentricity: 0.0011493
Arg of perigee: 331.2448 deg
Mean anomaly: 028.7028 deg
Mean motion: 15.94653083 rev/day
Decay rate: 1.15666e-03 rev/day^2
Epoch rev: 1333
Checksum: 275
Satellite: FCAL
Catalog number: 29667
Epoch time: 07073.90512721
Element set: 0098
Inclination: 051.6336 deg
RA of node: 227.4883 deg
Eccentricity: 0.0015508
Arg of perigee: 337.6144 deg
Mean anomaly: 022.4183 deg
Mean motion: 15.84685453 rev/day
Decay rate: 1.9047e-04 rev/day^2
Epoch rev: 01303
Checksum: 300
Satellite: FALCON
Catalog number: 30776
Epoch time: 07073.97344187
Element set: 0011
Inclination: 035.4336 deg
RA of node: 063.7700 deg
Eccentricity: 0.0001576
Arg of perigee: 338.0061 deg
Mean anomaly: 022.0599 deg
Mean motion: 15.02652725 rev/day
Decay rate: 2.69e-06 rev/day^2
Epoch rev: 00087
Checksum: 275
/EX
More information about the Keps
mailing list